Tracking 28794 objects as of 19-Apr-2024
HD Live streaming from Space Station
objects crossing your sky now

COSMOS 1275 DEB

Track COSMOS 1275 DEB now!
10-day predictions


NORAD ID: 42166
Int'l Code: 1981-053SE
Perigee: 829.6 km
Apogee: 1,034.7 km
Inclination: 82.9 °
Period: 103.5 minutes
Semi major axis: 7303 km
RCS: Unknown
Launch date: June 4, 1981
Source: Commonwealth of Independent States (former USSR) (CIS)
Launch site: PLESETSK MISSILE AND SPACE COMPLEX (PKMTR)

Note: This is SATELLITE DEBRIS
Your satellite tracking list
Your tracking list is empty




NASA's NSSDC Master Catalog

Two Line Element Set (TLE):
1 42166U 81053SE  24110.37029502  .00004437  00000-0  32531-2 0  9996
2 42166  82.8894 137.5568 0140449 306.0913  52.7312 13.91041282526025
Source of the keplerian elements: AFSPC